,,,PA_Meas_PMT16A,,PR_Meas_QMR101_102,,RH_Meas_QMH101,,SR_Meas_QMS101,,TA_Meas_QMH101,,GenWind,,GenWind,
date,time,status,PA,status,PR,status,RH,status,SR,status,TA,status,DirAvg,status,SpdAvg,
2008-09-07, 00:00:04,VALID,1003.26,VALID,0,VALID,88.8231,VALID,0.100563,VALID,25.1832,VALID,347,VALID,0.0558594,
2008-09-07, 00:01:04,VALID,1003.26,VALID,0,VALID,88.8231,VALID,0,VALID,25.2027,VALID,347,VALID,0,
2008-09-07, 00:02:04,VALID,1003.25,VALID,0,VALID,88.7697,VALID,0.100563,VALID,25.2007,VALID,347,VALID,0,
2008-09-07, 00:03:04,VALID,1003.28,VALID,0,VALID,88.6552,VALID,0,VALID,25.2027,VALID,343,VALID,0.137891,
2008-09-07, 00:04:04,VALID,1003.29,VALID,0,VALID,88.6171,VALID,0,VALID,25.2221,VALID,343,VALID,0.0726563,
2008-09-07, 00:05:04,VALID,1003.29,VALID,0,VALID,88.5408,VALID,0,VALID,25.2416,VALID,343,VALID,0.20625,
2008-09-07, 00:06:04,VALID,1003.25,VALID,0,VALID,88.5026,VALID,0,VALID,25.2611,VALID,343,VALID,0,
2008-09-07, 00:07:04,VALID,1003.23,VALID,0,VALID,88.6628,VALID,0,VALID,25.2611,VALID,343,VALID,0,
2008-09-07, 00:08:04,VALID,1003.19,VALID,0,VALID,88.6094,VALID,0,VALID,25.2806,VALID,343,VALID,0,
2008-09-07, 00:09:04,VALID,1003.19,VALID,0,VALID,88.701,VALID,0.100563,VALID,25.2806,VALID,343,VALID,0,
2008-09-07, 00:10:04,VALID,1003.2,VALID,0,VALID,88.701,VALID,0,VALID,25.2806,VALID,343,VALID,0,
2008-09-07, 00:11:04,VALID,1003.22,VALID,0,VALID,88.9604,VALID,0,VALID,25.2397,VALID,343,VALID,0,
2008-09-07, 00:12:04,VALID,1003.22,VALID,0,VALID,89.0367,VALID,0,VALID,25.2221,VALID,343,VALID,0,
2008-09-07, 00:13:04,VALID,1003.23,VALID,0,VALID,89.0595,VALID,0,VALID,25.1832,VALID,343,VALID,0,
2008-09-07, 00:14:04,VALID,1003.25,VALID,0,VALID,89.1816,VALID,0,VALID,25.1248,VALID,343,VALID,0,
2008-09-07, 00:15:04,VALID,1003.27,VALID,0,VALID,89.5097,VALID,0,VALID,25.0858,VALID,343,VALID,0,
2008-09-07, 00:16:04,VALID,1003.29,VALID,0,VALID,90.036,VALID,0,VALID,25.0274,VALID,35,VALID,0.169141,
2008-09-07, 00:17:04,VALID,1003.29,VALID,0,VALID,90.4251,VALID,0,VALID,25.0079,VALID,148,VALID,1.18438,
2008-09-07, 00:18:04,VALID,1003.28,VALID,0,VALID,90.5777,VALID,0,VALID,24.9476,VALID,150,VALID,0.659766,
2008-09-07, 00:19:04,VALID,1003.29,VALID,0,VALID,90.6921,VALID,0,VALID,24.93,VALID,150,VALID,0.848437,
2008-09-07, 00:20:04,VALID,1003.27,VALID,0,VALID,90.8981,VALID,0,VALID,24.8911,VALID,116,VALID,0.8,
2008-09-07, 00:21:04,VALID,1003.27,VALID,0,VALID,90.8371,VALID,0,VALID,24.9514,VALID,116,VALID,0.395312,
2008-09-07, 00:22:04,VALID,1003.24,VALID,0,VALID,90.7379,VALID,0,VALID,24.9495,VALID,116,VALID,0.230078,
2008-09-07, 00:23:04,VALID,1003.24,VALID,0,VALID,90.6158,VALID,0,VALID,24.9885,VALID,116,VALID,0.336719,
2008-09-07, 00:24:04,VALID,1003.21,VALID,0,VALID,90.4633,VALID,0,VALID,24.9885,VALID,115,VALID,0.3125,
2008-09-07, 00:25:04,VALID,1003.21,VALID,0,VALID,90.3793,VALID,0,VALID,25.0079,VALID,115,VALID,0.355469,
2008-09-07, 00:26:04,VALID,1003.21,VALID,0,VALID,90.3488,VALID,0,VALID,25.0488,VALID,106,VALID,0.496484,
2008-09-07, 00:27:04,VALID,1003.18,VALID,0,VALID,90.3412,VALID,0,VALID,24.9885,VALID,95,VALID,0.503906,
2008-09-07, 00:28:04,VALID,1003.17,VALID,0,VALID,90.4938,VALID,0,VALID,24.9495,VALID,94,VALID,0.416797,
2008-09-07, 00:29:04,VALID,1003.14,VALID,0,VALID,90.6387,VALID,0,VALID,24.93,VALID,2,VALID,0.435937,
2008-09-07, 00:30:04,VALID,1003.11,VALID,0,VALID,90.8523,VALID,0,VALID,24.9106,VALID,2,VALID,0.512109,
2008-09-07, 00:31:04,VALID,1003.08,VALID,0,VALID,91.1117,VALID,0,VALID,24.8716,VALID,2,VALID,0.317187,
2008-09-07, 00:32:04,VALID,1003.05,VALID,0,VALID,91.0583,VALID,0,VALID,24.893,VALID,2,VALID,0.0597656,
2008-09-07, 00:33:04,VALID,1003.05,VALID,0,VALID,91.1117,VALID,0,VALID,24.8716,VALID,2,VALID,0,
2008-09-07, 00:34:04,VALID,1003.04,VALID,0,VALID,91.1422,VALID,0,VALID,24.8911,VALID,2,VALID,0,
2008-09-07, 00:35:04,VALID,1003.05,VALID,0,VALID,91.0965,VALID,0,VALID,24.8716,VALID,2,VALID,0,
2008-09-07, 00:36:04,VALID,1003.03,VALID,0,VALID,91.1575,VALID,0,VALID,24.9125,VALID,2,VALID,0,
2008-09-07, 00:37:04,VALID,1003,VALID,0,VALID,91.2338,VALID,0,VALID,24.93,VALID,2,VALID,0,
2008-09-07, 00:38:04,VALID,1002.99,VALID,0,VALID,91.3482,VALID,0.100563,VALID,24.969,VALID,2,VALID,0,
2008-09-07, 00:39:04,VALID,1002.99,VALID,0,VALID,91.4092,VALID,0,VALID,24.9885,VALID,2,VALID,0.065625,
2008-09-07, 00:40:04,VALID,1003.02,VALID,0,VALID,91.4092,VALID,0,VALID,24.9709,VALID,2,VALID,0.291797,
2008-09-07, 00:41:04,VALID,1003.04,VALID,0,VALID,91.2872,VALID,0,VALID,24.9514,VALID,2,VALID,0.371875,
2008-09-07, 00:42:04,VALID,1003.06,VALID,0,VALID,91.2567,VALID,0,VALID,24.8911,VALID,2,VALID,0.477734,
2008-09-07, 00:43:04,VALID,1003.04,VALID,0,VALID,91.3711,VALID,0,VALID,24.8735,VALID,2,VALID,0.511719,
2008-09-07, 00:44:04,VALID,1003.06,VALID,0,VALID,91.4855,VALID,0,VALID,24.8522,VALID,2,VALID,0.244531,
2008-09-07, 00:45:04,VALID,1003.02,VALID,0,VALID,91.6839,VALID,0,VALID,24.8522,VALID,2,VALID,0,
2008-09-07, 00:46:04,VALID,1003.03,VALID,0,VALID,91.7678,VALID,0,VALID,24.8716,VALID,2,VALID,0,
2008-09-07, 00:47:04,VALID,1003.04,VALID,0,VALID,91.8441,VALID,0,VALID,24.8716,VALID,2,VALID,0,
2008-09-07, 00:48:04,VALID,1003.05,VALID,0,VALID,91.9738,VALID,0,VALID,24.9319,VALID,2,VALID,0,
2008-09-07, 00:49:04,VALID,1003.02,VALID,0,VALID,92.1874,VALID,0,VALID,24.93,VALID,2,VALID,0,
2008-09-07, 00:50:04,VALID,1003.07,VALID,0,VALID,92.3247,VALID,0,VALID,24.969,VALID,2,VALID,0,
2008-09-07, 00:51:04,VALID,1003.08,VALID,0,VALID,92.3247,VALID,0,VALID,24.9885,VALID,2,VALID,0,
2008-09-07, 00:52:04,VALID,1003.08,VALID,0,VALID,92.3018,VALID,0,VALID,25.0098,VALID,2,VALID,0.0839844,
2008-09-07, 00:53:04,VALID,1003.11,VALID,0,VALID,92.2637,VALID,0,VALID,25.0079,VALID,2,VALID,0.333203,
2008-09-07, 00:54:04,VALID,1003.12,VALID,0,VALID,92.2866,VALID,0,VALID,25.0079,VALID,2,VALID,0.258984,
2008-09-07, 00:55:04,VALID,1003.13,VALID,0,VALID,92.1874,VALID,0,VALID,25.0488,VALID,2,VALID,0.389062,
2008-09-07, 00:56:04,VALID,1003.12,VALID,0,VALID,92.3323,VALID,0,VALID,25.0255,VALID,2,VALID,0.0796875,
2008-09-07, 00:57:04,VALID,1003.11,VALID,0,VALID,92.4086,VALID,0,VALID,25.0469,VALID,2,VALID,0,
2008-09-07, 00:58:04,VALID,1003.15,VALID,0,VALID,92.3323,VALID,0,VALID,25.0469,VALID,2,VALID,0,
2008-09-07, 00:59:04,VALID,1003.15,VALID,0,VALID,92.2332,VALID,0,VALID,25.0877,VALID,2,VALID,0.00117188,
2008-09-07, 01:00:04,VALID,1003.16,VALID,0,VALID,92.1187,VALID,0,VALID,25.0469,VALID,2,VALID,0.223047,
2008-09-07, 01:01:04,VALID,1003.14,VALID,0,VALID,91.9967,VALID,0,VALID,25.0488,VALID,18,VALID,0.3375,
2008-09-07, 01:02:04,VALID,1003.11,VALID,0,VALID,92.1416,VALID,0,VALID,25.0274,VALID,19,VALID,0.41875,
2008-09-07, 01:03:04,VALID,1003.11,VALID,0,VALID,92.2942,VALID,0,VALID,25.0274,VALID,19,VALID,0.225,
2008-09-07, 01:04:04,VALID,1003.09,VALID,0,VALID,92.2637,VALID,0,VALID,25.0079,VALID,19,VALID,0.378125,
2008-09-07, 01:05:04,VALID,1003.1,VALID,0,VALID,92.4086,VALID,0,VALID,24.9885,VALID,19,VALID,0.360547,
2008-09-07, 01:06:04,VALID,1003.12,VALID,0,VALID,92.5231,VALID,0,VALID,24.969,VALID,19,VALID,0.258594,
2008-09-07, 01:07:04,VALID,1003.1,VALID,0,VALID,92.6299,VALID,0,VALID,24.9495,VALID,39,VALID,0.510156,
2008-09-07, 01:08:04,VALID,1003.11,VALID,0,VALID,92.7443,VALID,0,VALID,24.9495,VALID,56,VALID,0.460938,
2008-09-07, 01:09:04,VALID,1003.06,VALID,0,VALID,92.8511,VALID,0,VALID,24.9514,VALID,61,VALID,0.373437,
2008-09-07, 01:10:04,VALID,1003.04,VALID,0.5,VALID,92.9579,VALID,0,VALID,24.9319,VALID,61,VALID,0.282813,
2008-09-07, 01:11:04,VALID,1003.04,VALID,0,VALID,93.0571,VALID,0,VALID,24.8911,VALID,61,VALID,0.1,
2008-09-07, 01:12:04,VALID,1003.01,VALID,0,VALID,93.2554,VALID,0,VALID,24.8911,VALID,61,VALID,0,
2008-09-07, 01:13:04,VALID,1002.99,VALID,0,VALID,93.4309,VALID,0,VALID,24.9125,VALID,61,VALID,0.147266,
2008-09-07, 01:14:04,VALID,1002.95,VALID,0,VALID,93.5835,VALID,0,VALID,24.8911,VALID,61,VALID,0.448438,
2008-09-07, 01:15:04,VALID,1002.94,VALID,0,VALID,93.7666,VALID,0,VALID,24.8911,VALID,30,VALID,0.595703,
2008-09-07, 01:16:04,VALID,1002.88,VALID,0,VALID,93.9191,VALID,0,VALID,24.9319,VALID,15,VALID,0.685547,
2008-09-07, 01:17:04,VALID,1002.85,VALID,0.5,VALID,93.9497,VALID,0,VALID,24.9514,VALID,15,VALID,0.836719,
2008-09-07, 01:18:04,VALID,1002.83,VALID,0,VALID,94.0107,VALID,0,VALID,24.8911,VALID,15,VALID,0.720703,
2008-09-07, 01:19:04,VALID,1002.81,VALID,0,VALID,94.1785,VALID,0,VALID,24.9106,VALID,14,VALID,0.501562,
2008-09-07, 01:20:04,VALID,1002.81,VALID,0,VALID,94.209,VALID,0,VALID,24.8716,VALID,14,VALID,0.390625,
2008-09-07, 01:21:04,VALID,1002.79,VALID,0,VALID,94.293,VALID,0,VALID,24.8911,VALID,14,VALID,0.246484,
2008-09-07, 01:22:04,VALID,1002.78,VALID,0,VALID,94.3921,VALID,0,VALID,24.9106,VALID,14,VALID,0.321094,
2008-09-07, 01:23:04,VALID,1002.76,VALID,0,VALID,94.4684,VALID,0.100563,VALID,24.9495,VALID,14,VALID,0.349609,
2008-09-07, 01:24:04,VALID,1002.73,VALID,0.5,VALID,94.4074,VALID,0,VALID,24.93,VALID,14,VALID,0.432422,
2008-09-07, 01:25:04,VALID,1002.7,VALID,0,VALID,94.4608,VALID,0,VALID,24.9106,VALID,14,VALID,0.0515625,
2008-09-07, 01:26:04,VALID,1002.62,VALID,0.5,VALID,94.5752,VALID,0,VALID,24.9106,VALID,14,VALID,0.213672,
2008-09-07, 01:27:04,VALID,1002.6,VALID,0,VALID,94.6057,VALID,0,VALID,24.93,VALID,14,VALID,0.424609,
2008-09-07, 01:28:04,VALID,1002.57,VALID,0,VALID,94.6591,VALID,0,VALID,24.93,VALID,14,VALID,0.358594,
2008-09-07, 01:29:04,VALID,1002.56,VALID,0.5,VALID,94.7507,VALID,0,VALID,24.969,VALID,14,VALID,0.400391,
2008-09-07, 01:30:04,VALID,1002.54,VALID,0,VALID,94.7965,VALID,0,VALID,24.9709,VALID,14,VALID,0.453516,
2008-09-07, 01:31:04,VALID,1002.56,VALID,0,VALID,94.7888,VALID,0,VALID,24.9709,VALID,14,VALID,0.33125,
2008-09-07, 01:32:04,VALID,1002.55,VALID,0,VALID,94.7507,VALID,0,VALID,24.9904,VALID,14,VALID,0.29375,
2008-09-07, 01:33:04,VALID,1002.57,VALID,0,VALID,94.7888,VALID,0,VALID,24.9495,VALID,14,VALID,0.207813,
2008-09-07, 01:34:04,VALID,1002.57,VALID,0,VALID,94.8499,VALID,0,VALID,24.9709,VALID,14,VALID,0.378125,
2008-09-07, 01:35:04,VALID,1002.59,VALID,0,VALID,94.9033,VALID,0,VALID,24.969,VALID,14,VALID,0.221094,
2008-09-07, 01:36:04,VALID,1002.63,VALID,0,VALID,94.9567,VALID,0,VALID,24.9885,VALID,14,VALID,0,
2008-09-07, 01:37:04,VALID,1002.66,VALID,0,VALID,94.9643,VALID,0,VALID,25.0293,VALID,14,VALID,0,
2008-09-07, 01:38:04,VALID,1002.69,VALID,0,VALID,95.0024,VALID,0,VALID,25.0079,VALID,14,VALID,0,
2008-09-07, 01:39:04,VALID,1002.71,VALID,0,VALID,94.9872,VALID,0,VALID,25.0274,VALID,14,VALID,0,
2008-09-07, 01:40:04,VALID,1002.77,VALID,0,VALID,95.0253,VALID,0,VALID,25.0274,VALID,14,VALID,0,
2008-09-07, 01:41:04,VALID,1002.77,VALID,0,VALID,95.0253,VALID,0,VALID,25.0663,VALID,14,VALID,0,
2008-09-07, 01:42:04,VALID,1002.78,VALID,0,VALID,95.0558,VALID,0,VALID,25.0663,VALID,14,VALID,0,
2008-09-07, 01:43:04,VALID,1002.8,VALID,0,VALID,95.094,VALID,0,VALID,25.1072,VALID,14,VALID,0,
2008-09-07, 01:44:04,VALID,1002.78,VALID,0,VALID,95.1016,VALID,0,VALID,25.1267,VALID,14,VALID,0,
2008-09-07, 01:45:04,VALID,1002.79,VALID,0,VALID,95.1093,VALID,0,VALID,25.1053,VALID,14,VALID,0,
2008-09-07, 01:46:04,VALID,1002.77,VALID,0,VALID,95.1093,VALID,0,VALID,25.1267,VALID,14,VALID,0,
2008-09-07, 01:47:04,VALID,1002.78,VALID,0,VALID,95.1398,VALID,0,VALID,25.1248,VALID,14,VALID,0,
2008-09-07, 01:48:04,VALID,1002.77,VALID,0,VALID,95.1016,VALID,0,VALID,25.1461,VALID,14,VALID,0,
2008-09-07, 01:49:04,VALID,1002.79,VALID,0,VALID,95.0711,VALID,0,VALID,25.1248,VALID,14,VALID,0,
2008-09-07, 01:50:04,VALID,1002.74,VALID,0,VALID,95.0101,VALID,0,VALID,25.0663,VALID,56,VALID,0.559375,
2008-09-07, 01:51:04,VALID,1002.72,VALID,0,VALID,94.9719,VALID,0,VALID,25.0274,VALID,56,VALID,0.351172,
2008-09-07, 01:52:04,VALID,1002.73,VALID,0,VALID,95.0253,VALID,0,VALID,25.0274,VALID,56,VALID,0.262109,
2008-09-07, 01:53:04,VALID,1002.7,VALID,0,VALID,95.0177,VALID,0,VALID,24.9885,VALID,50,VALID,0.601563,
2008-09-07, 01:54:04,VALID,1002.69,VALID,0,VALID,95.0864,VALID,0,VALID,24.9885,VALID,48,VALID,0.377344,
2008-09-07, 01:55:04,VALID,1002.66,VALID,0,VALID,95.1779,VALID,0,VALID,24.9885,VALID,35,VALID,0.307031,
2008-09-07, 01:56:04,VALID,1002.65,VALID,0,VALID,95.2161,VALID,0,VALID,25.0079,VALID,35,VALID,0.274219,
2008-09-07, 01:57:04,VALID,1002.61,VALID,0,VALID,95.2084,VALID,0,VALID,25.0079,VALID,35,VALID,0.142578,
2008-09-07, 01:58:04,VALID,1002.55,VALID,0,VALID,95.2084,VALID,0,VALID,25.0079,VALID,35,VALID,0.347656,
2008-09-07, 01:59:04,VALID,1002.53,VALID,0,VALID,95.1932,VALID,0,VALID,25.0079,VALID,35,VALID,0,
2008-09-07, 02:00:04,VALID,1002.47,VALID,0,VALID,95.2237,VALID,0,VALID,25.0079,VALID,354,VALID,0.430078,
2008-09-07, 02:01:04,VALID,1002.42,VALID,0,VALID,95.2313,VALID,0,VALID,25.0079,VALID,352,VALID,0.248828,
2008-09-07, 02:02:04,VALID,1002.42,VALID,0,VALID,95.2466,VALID,0,VALID,25.0274,VALID,352,VALID,0.453125,
2008-09-07, 02:03:04,VALID,1002.45,VALID,0,VALID,95.2466,VALID,0,VALID,25.0274,VALID,352,VALID,0.484766,
2008-09-07, 02:04:04,VALID,1002.52,VALID,0,VALID,95.2771,VALID,0,VALID,25.0274,VALID,352,VALID,0.361328,
2008-09-07, 02:05:04,VALID,1002.55,VALID,0,VALID,95.2847,VALID,0,VALID,25.0274,VALID,352,VALID,0.504687,
2008-09-07, 02:06:04,VALID,1002.54,VALID,0,VALID,95.2542,VALID,0,VALID,25.0274,VALID,355,VALID,0.576953,
2008-09-07, 02:07:04,VALID,1002.55,VALID,0,VALID,95.2771,VALID,0.100563,VALID,25.0469,VALID,355,VALID,0.361719,
2008-09-07, 02:08:04,VALID,1002.53,VALID,0,VALID,95.3,VALID,0.100563,VALID,25.0274,VALID,355,VALID,0.2,
2008-09-07, 02:09:04,VALID,1002.49,VALID,0,VALID,95.3,VALID,0,VALID,25.0488,VALID,355,VALID,0.147656,
2008-09-07, 02:10:04,VALID,1002.43,VALID,0,VALID,95.2771,VALID,0,VALID,25.0274,VALID,355,VALID,0.153516,
2008-09-07, 02:11:04,VALID,1002.4,VALID,0,VALID,95.3381,VALID,0,VALID,25.0274,VALID,304,VALID,0.46875,
2008-09-07, 02:12:04,VALID,1002.39,VALID,0,VALID,95.3915,VALID,0,VALID,25.0469,VALID,297,VALID,0.577344,
2008-09-07, 02:13:04,VALID,1002.41,VALID,0,VALID,95.422,VALID,0,VALID,25.0663,VALID,295,VALID,0.271094,
2008-09-07, 02:14:04,VALID,1002.45,VALID,0,VALID,95.4144,VALID,0,VALID,25.1053,VALID,295,VALID,0,
2008-09-07, 02:15:04,VALID,1002.49,VALID,0,VALID,95.3991,VALID,0,VALID,25.1248,VALID,295,VALID,0,
2008-09-07, 02:16:04,VALID,1002.52,VALID,0,VALID,95.3991,VALID,0,VALID,25.1442,VALID,295,VALID,0,
2008-09-07, 02:17:04,VALID,1002.51,VALID,0,VALID,95.3763,VALID,0,VALID,25.1442,VALID,295,VALID,0,
2008-09-07, 02:18:05,VALID,1002.5,VALID,0,VALID,95.3686,VALID,0,VALID,25.1851,VALID,295,VALID,0.216016,
2008-09-07, 02:19:05,VALID,1002.45,VALID,0,VALID,95.361,VALID,0,VALID,25.1637,VALID,295,VALID,0.133984,
2008-09-07, 02:20:05,VALID,1002.42,VALID,0,VALID,95.3686,VALID,0,VALID,25.2046,VALID,295,VALID,0.133984,
2008-09-07, 02:21:05,VALID,1002.38,VALID,0,VALID,95.4068,VALID,0,VALID,25.1851,VALID,295,VALID,0,
2008-09-07, 02:22:05,VALID,1002.33,VALID,0,VALID,95.3534,VALID,0,VALID,25.1851,VALID,295,VALID,0,
2008-09-07, 02:23:05,VALID,1002.3,VALID,0,VALID,95.3457,VALID,0,VALID,25.1637,VALID,295,VALID,0,
2008-09-07, 02:24:05,VALID,1002.31,VALID,0,VALID,95.3381,VALID,0,VALID,25.1637,VALID,295,VALID,0,
2008-09-07, 02:25:05,VALID,1002.31,VALID,0,VALID,95.3,VALID,0.100563,VALID,25.1442,VALID,295,VALID,0.323438,
2008-09-07, 02:26:05,VALID,1002.28,VALID,0,VALID,95.2542,VALID,0,VALID,25.1053,VALID,295,VALID,0.360938,
2008-09-07, 02:27:05,VALID,1002.3,VALID,0,VALID,95.2542,VALID,0,VALID,25.0877,VALID,295,VALID,0.301172,
2008-09-07, 02:28:05,VALID,1002.34,VALID,0,VALID,95.2389,VALID,0,VALID,25.0469,VALID,295,VALID,0.234375,
2008-09-07, 02:29:05,VALID,1002.36,VALID,0,VALID,95.2695,VALID,0.100563,VALID,25.0274,VALID,295,VALID,0.240234,
2008-09-07, 02:30:05,VALID,1002.39,VALID,0,VALID,95.3,VALID,0,VALID,25.0274,VALID,295,VALID,0.071875,
2008-09-07, 02:31:05,VALID,1002.43,VALID,0,VALID,95.3305,VALID,0,VALID,25.0079,VALID,295,VALID,0,
2008-09-07, 02:32:05,VALID,1002.45,VALID,0,VALID,95.3457,VALID,0,VALID,25.0274,VALID,295,VALID,0.128516,
2008-09-07, 02:33:05,VALID,1002.51,VALID,0,VALID,95.3305,VALID,0,VALID,25.0079,VALID,295,VALID,0.01875,
2008-09-07, 02:34:05,VALID,1002.52,VALID,0,VALID,95.3305,VALID,0,VALID,25.0079,VALID,295,VALID,0.105078,
2008-09-07, 02:35:05,VALID,1002.58,VALID,0,VALID,95.3381,VALID,0,VALID,25.0079,VALID,295,VALID,0.0617188,
2008-09-07, 02:36:05,VALID,1002.59,VALID,0,VALID,95.3686,VALID,0,VALID,24.9671,VALID,295,VALID,0,
2008-09-07, 02:37:05,VALID,1002.62,VALID,0,VALID,95.3839,VALID,0,VALID,25.0079,VALID,295,VALID,0.00234375,
2008-09-07, 02:38:05,VALID,1002.63,VALID,0,VALID,95.3686,VALID,0,VALID,24.9885,VALID,295,VALID,0.174609,
2008-09-07, 02:39:05,VALID,1002.62,VALID,0,VALID,95.3915,VALID,0.100563,VALID,24.9671,VALID,295,VALID,0,
2008-09-07, 02:40:05,VALID,1002.63,VALID,0,VALID,95.3839,VALID,0.100563,VALID,24.9885,VALID,295,VALID,0.535937,
2008-09-07, 02:41:05,VALID,1002.54,VALID,0,VALID,95.3839,VALID,0.100563,VALID,24.9885,VALID,296,VALID,0.265234,
2008-09-07, 02:42:05,VALID,1002.5,VALID,0,VALID,95.3839,VALID,0.100563,VALID,24.969,VALID,296,VALID,0.0105469,
2008-09-07, 02:43:05,VALID,1002.43,VALID,0,VALID,95.3686,VALID,0.100563,VALID,24.9495,VALID,296,VALID,0,
2008-09-07, 02:44:05,VALID,1002.38,VALID,0,VALID,95.3915,VALID,0,VALID,24.9495,VALID,296,VALID,0,
2008-09-07, 02:45:05,VALID,1002.34,VALID,0,VALID,95.3991,VALID,0,VALID,24.9476,VALID,296,VALID,0,
2008-09-07, 02:46:05,VALID,1002.37,VALID,0,VALID,95.3991,VALID,0,VALID,24.969,VALID,296,VALID,0,
2008-09-07, 02:47:05,VALID,1002.38,VALID,0,VALID,95.422,VALID,0,VALID,24.9495,VALID,296,VALID,0,
2008-09-07, 02:48:05,VALID,1002.41,VALID,0,VALID,95.4297,VALID,0.100563,VALID,24.969,VALID,296,VALID,0.136328,
2008-09-07, 02:49:05,VALID,1002.42,VALID,0,VALID,95.4449,VALID,0.100563,VALID,24.969,VALID,296,VALID,0.207031,
2008-09-07, 02:50:05,VALID,1002.42,VALID,0,VALID,95.4373,VALID,0.100563,VALID,24.9904,VALID,1,VALID,0.357031,
2008-09-07, 02:51:05,VALID,1002.39,VALID,0,VALID,95.4373,VALID,0.100563,VALID,24.9476,VALID,34,VALID,0.314453,
2008-09-07, 02:52:05,VALID,1002.37,VALID,0,VALID,95.4144,VALID,0.100563,VALID,24.9709,VALID,34,VALID,0.0492188,
2008-09-07, 02:53:05,VALID,1002.33,VALID,0,VALID,95.4297,VALID,0,VALID,24.9495,VALID,34,VALID,0,
2008-09-07, 02:54:05,VALID,1002.31,VALID,0,VALID,95.4526,VALID,0.100563,VALID,24.9495,VALID,34,VALID,0.00429688,
2008-09-07, 02:55:05,VALID,1002.3,VALID,0,VALID,95.4983,VALID,0.100563,VALID,24.969,VALID,34,VALID,0.196484,
2008-09-07, 02:56:05,VALID,1002.28,VALID,0,VALID,95.5136,VALID,0.100563,VALID,24.9476,VALID,34,VALID,0.26875,
2008-09-07, 02:57:05,VALID,1002.32,VALID,0,VALID,95.4907,VALID,0.100563,VALID,24.9885,VALID,34,VALID,0.390234,
2008-09-07, 02:58:05,VALID,1002.35,VALID,0,VALID,95.4831,VALID,0.100563,VALID,24.9866,VALID,34,VALID,0.292969,
2008-09-07, 02:59:05,VALID,1002.37,VALID,0,VALID,95.4831,VALID,0.100563,VALID,24.9885,VALID,34,VALID,0.00273437,
2008-09-07, 03:00:05,VALID,1002.38,VALID,0,VALID,95.5212,VALID,0,VALID,25.0079,VALID,34,VALID,0.285156,
2008-09-07, 03:01:05,VALID,1002.36,VALID,0,VALID,95.4831,VALID,0,VALID,24.9885,VALID,34,VALID,0.501953,
2008-09-07, 03:02:05,VALID,1002.36,VALID,0,VALID,95.4754,VALID,0.100563,VALID,24.9885,VALID,33,VALID,0.501953,
2008-09-07, 03:03:05,VALID,1002.38,VALID,0,VALID,95.4526,VALID,0,VALID,24.969,VALID,30,VALID,0.404687,
2008-09-07, 03:04:05,VALID,1002.4,VALID,0,VALID,95.4907,VALID,0,VALID,24.969,VALID,30,VALID,0.386719,
2008-09-07, 03:05:05,VALID,1002.41,VALID,0,VALID,95.4907,VALID,0.100563,VALID,24.9885,VALID,20,VALID,0.635156,
2008-09-07, 03:06:05,VALID,1002.42,VALID,0,VALID,95.4678,VALID,0,VALID,24.9495,VALID,19,VALID,0.529688,
2008-09-07, 03:07:05,VALID,1002.39,VALID,0,VALID,95.4602,VALID,0.100563,VALID,24.93,VALID,16,VALID,0.579297,
2008-09-07, 03:08:05,VALID,1002.39,VALID,0,VALID,95.506,VALID,0.100563,VALID,24.9282,VALID,16,VALID,0.464063,
2008-09-07, 03:09:05,VALID,1002.43,VALID,0,VALID,95.4983,VALID,0,VALID,24.9495,VALID,16,VALID,0.461328,
2008-09-07, 03:10:05,VALID,1002.43,VALID,0,VALID,95.506,VALID,0,VALID,24.9495,VALID,16,VALID,0.366016,
2008-09-07, 03:11:05,VALID,1002.44,VALID,0,VALID,95.5288,VALID,0.100563,VALID,24.969,VALID,16,VALID,0.477734,
2008-09-07, 03:12:05,VALID,1002.42,VALID,0,VALID,95.5365,VALID,0,VALID,24.969,VALID,16,VALID,0.499609,
2008-09-07, 03:13:05,VALID,1002.41,VALID,0,VALID,95.5441,VALID,0.100563,VALID,24.9885,VALID,26,VALID,0.558984,
2008-09-07, 03:14:05,VALID,1002.37,VALID,0,VALID,95.5746,VALID,0.100563,VALID,25.0079,VALID,26,VALID,0.308594,
2008-09-07, 03:15:05,VALID,1002.34,VALID,0,VALID,95.5746,VALID,0,VALID,24.9866,VALID,26,VALID,0.190625,
2008-09-07, 03:16:05,VALID,1002.33,VALID,0,VALID,95.5594,VALID,0,VALID,25.0079,VALID,26,VALID,0,
2008-09-07, 03:17:05,VALID,1002.26,VALID,0,VALID,95.5517,VALID,0.100563,VALID,25.0079,VALID,26,VALID,0,
2008-09-07, 03:18:05,VALID,1002.24,VALID,0,VALID,95.567,VALID,0.100563,VALID,25.006,VALID,26,VALID,0,
2008-09-07, 03:19:05,VALID,1002.21,VALID,0,VALID,95.5441,VALID,0,VALID,25.0274,VALID,26,VALID,0,
2008-09-07, 03:20:05,VALID,1002.14,VALID,0,VALID,95.5746,VALID,0,VALID,25.0274,VALID,26,VALID,0,
2008-09-07, 03:21:05,VALID,1002.12,VALID,0,VALID,95.567,VALID,0,VALID,25.0469,VALID,26,VALID,0,
2008-09-07, 03:22:05,VALID,1002.11,VALID,0,VALID,95.5746,VALID,0,VALID,25.0469,VALID,26,VALID,0,
2008-09-07, 03:23:05,VALID,1002.11,VALID,0,VALID,95.5746,VALID,0,VALID,25.0663,VALID,26,VALID,0,
2008-09-07, 03:24:05,VALID,1002.15,VALID,0,VALID,95.5899,VALID,0,VALID,25.0858,VALID,24,VALID,0.253516,
2008-09-07, 03:25:05,VALID,1002.17,VALID,0,VALID,95.6051,VALID,0.100563,VALID,25.1053,VALID,15,VALID,0.539844,
2008-09-07, 03:26:05,VALID,1002.2,VALID,0,VALID,95.6051,VALID,0,VALID,25.1053,VALID,10,VALID,0.565234,
2008-09-07, 03:27:05,VALID,1002.2,VALID,0,VALID,95.6051,VALID,0.100563,VALID,25.1034,VALID,6,VALID,0.596484,
2008-09-07, 03:28:05,VALID,1002.21,VALID,0,VALID,95.5822,VALID,0.100563,VALID,25.1034,VALID,349,VALID,0.523047,
2008-09-07, 03:29:05,VALID,1002.23,VALID,0,VALID,95.567,VALID,0.100563,VALID,25.0839,VALID,357,VALID,0.424219,
2008-09-07, 03:30:05,VALID,1002.23,VALID,0,VALID,95.567,VALID,0.100563,VALID,25.1053,VALID,356,VALID,0.148438,
2008-09-07, 03:31:05,VALID,1002.24,VALID,0,VALID,95.5594,VALID,0,VALID,25.1072,VALID,355,VALID,0.474219,
2008-09-07, 03:32:05,VALID,1002.2,VALID,0,VALID,95.5441,VALID,0.100563,VALID,25.1053,VALID,355,VALID,0.348047,
2008-09-07, 03:33:05,VALID,1002.22,VALID,0,VALID,95.5517,VALID,0.100563,VALID,25.0644,VALID,355,VALID,0.196484,
2008-09-07, 03:34:05,VALID,1002.22,VALID,0,VALID,95.5365,VALID,0.100563,VALID,25.0644,VALID,355,VALID,0,
2008-09-07, 03:35:05,VALID,1002.23,VALID,0,VALID,95.5288,VALID,0,VALID,25.0858,VALID,355,VALID,0,
2008-09-07, 03:36:05,VALID,1002.25,VALID,0,VALID,95.5365,VALID,0.100563,VALID,25.045,VALID,355,VALID,0,
2008-09-07, 03:37:05,VALID,1002.24,VALID,0,VALID,95.5212,VALID,0.100563,VALID,25.0469,VALID,355,VALID,0.0679687,
2008-09-07, 03:38:05,VALID,1002.25,VALID,0,VALID,95.506,VALID,0.100563,VALID,25.0255,VALID,355,VALID,0.0195313,
2008-09-07, 03:39:05,VALID,1002.23,VALID,0,VALID,95.5212,VALID,0,VALID,25.0469,VALID,357,VALID,0.497656,
2008-09-07, 03:40:05,VALID,1002.24,VALID,0,VALID,95.5365,VALID,0,VALID,25.0469,VALID,357,VALID,0.382813,
2008-09-07, 03:41:05,VALID,1002.22,VALID,0,VALID,95.5517,VALID,0.100563,VALID,25.0682,VALID,357,VALID,0.515234,
2008-09-07, 03:42:05,VALID,1002.24,VALID,0,VALID,95.5441,VALID,0,VALID,25.0274,VALID,357,VALID,0.407422,
2008-09-07, 03:43:05,VALID,1002.26,VALID,0,VALID,95.5517,VALID,0,VALID,25.0274,VALID,357,VALID,0.238672,
2008-09-07, 03:44:05,VALID,1002.24,VALID,0,VALID,95.567,VALID,0,VALID,25.0274,VALID,357,VALID,0,
2008-09-07, 03:45:05,VALID,1002.27,VALID,0,VALID,95.5517,VALID,0,VALID,25.006,VALID,357,VALID,0,
2008-09-07, 03:46:05,VALID,1002.28,VALID,0,VALID,95.5365,VALID,0,VALID,25.006,VALID,357,VALID,0,
2008-09-07, 03:47:05,VALID,1002.29,VALID,0,VALID,95.5441,VALID,0.100563,VALID,25.006,VALID,357,VALID,0,